Location: D�pe
(52.6057°N, 8.1808°E)
Time: 01:47:38
(UTC+00:00)

CSL-04 Rocket - Pass Details

Date: 29 October 2020
Orbit: 805 x 861 km, 98.9° (Epoch: 23 November)

Event Time Altitude Azimuth Distance (km) Brightness Sun altitude
Rises 18:34:43 0° 173° (S) 3,424 6.7 -23.6°
Reaches altitude 10° 18:37:08 10° 176° (S) 2,489 6.0 -23.9°
Maximum altitude 18:42:37 63° 257° (WSW) 953 4.1 -24.8°
Drops below altitude 10° 18:48:05 10° 339° (NNW) 2,480 6.5 -25.6°
Sets 18:50:29 0° 343° (NNW) 3,411 7.2 -25.9°
